{"data":{"norad_id":64455,"intl_designator":"2025-130T","name":"STARLINK-34295","alt_names":[],"object_type":"PAYLOAD","status":"ACTIVE","operator":null,"country":"US","launch_date":"2025-06-18","launch_site_code":"AFETR","launch_vehicle":null,"mission":null,"orbit_class":"UNKNOWN","rcs_meters":null,"size_class":null,"mass_kg":null,"dimensions":null,"purposes":["comms"],"wikipedia_slug":null,"has_3d_model":false,"image_url":null,"decayed_at":null,"tle_current":{"epoch":"2026-09-20T00:21:16.600608Z","epoch_age_seconds":173584,"freshness":"STALE","line1":"1 64455U 25130T   26263.01477547  .00019259  00000+0  57962-3 0  9996","line2":"2 64455  53.1567 261.7644 0001726  97.3777 262.7422 15.34403178 70513","mean_motion":15.34403178,"eccentricity":0.0001726,"inclination_deg":53.1567,"raan_deg":261.7644,"arg_perigee_deg":97.3777,"mean_anomaly_deg":262.7422,"bstar":0.00057962,"rev_number":7051,"period_min":93.847563707275,"perigee_km":461.51306714254,"apogee_km":463.87452193281,"semimajor_km":6840.8307945377,"source":"CELESTRAK","updated_at":"2026-09-21T09:00:35.355621Z"}}}